Location: Demmingen
(48.6757°N, 10.4375°E)
Time: 21:53:35
(UTC+00:00)

EXPRESS MD2 - Pass Details

Date: 23 May 2024
Orbit: 262 x 3334 km, 49.9° (Epoch: 14 June)

Event Time Altitude Azimuth Distance (km) Brightness Sun altitude
Exits shadow 01:31:15 31° 192° (SSW) 715 3.4 -14.3°
Maximum altitude 01:32:10 41° 148° (SSE) 631 3.4 -14.2°
Drops below altitude 10° 01:36:09 10° 77° (ENE) 2,009 6.9 -13.9°
Sets 01:39:23 0° 72° (ENE) 3,394 8.3 -13.6°
